WXM80 ListenWXM80 Stop

You find our weather info also at:

UK Metoffice

WeatherCloud

Weather Underground

Northeastern Weather Network

AWEKAS

Citizen Weather Observer Program (CWOP)

HAMweather, WeatherForYou, PWS Weather


Weather Underground History page Text

Daily Summary for July 18, 2017 Units:  Both    English   Metric
« Previous Day
Next Day »
Daily Weekly Monthly Yearly Custom
  High: Low: Average:
Temperature: 89.6 °F /  32 °C 72.2 °F /  22.3 °C 79.9 °F /  26.6 °C
Dew Point: 78.0 °F /  25.6 °C 70.6 °F /  21.4 °C 73.2 °F /  22.9 °C
Humidity: 97 % 60 % 81 %
Wind Speed: 5.0 mph /  8 km/h - 0.8 mph /  1.3 km/h
Wind Gust: 8.0 mph /  12.9 km/h - -
Wind:- - SSE
Pressure: 30.07 in /  1018.2 hPa 29.98 in /  1015.1 hPa -
Precipitation: 0.00 in /  0 mm    
Historical Graphs
 
 
Tabular Data for July 18, 2017
Time Temperature Dew Point Pressure Wind Wind Speed Wind Gust Humidity Rainfall Rate (Hourly)
00:00 74.9 °F /  23.8 °C 72.4 °F /  22.4 °C 30.03 in /  1016.8 hPa SW 0.2 mph /  0.3 km/h 2.3 mph /  3.7 km/h 92 % 0.00 in /  0 mm
00:05 74.8 °F /  23.8 °C 72.3 °F /  22.4 °C 30.03 in /  1016.8 hPa WSW 0.2 mph /  0.3 km/h 1.2 mph /  1.9 km/h 92 % 0.00 in /  0 mm
00:10 74.7 °F /  23.7 °C 72.2 °F /  22.3 °C 30.03 in /  1016.8 hPa Calm     92 % 0.00 in /  0 mm
00:15 74.7 °F /  23.7 °C 72.2 °F /  22.3 °C 30.03 in /  1016.8 hPa Calm     92 % 0.00 in /  0 mm
00:20 74.7 °F /  23.7 °C 72.2 °F /  22.3 °C 30.03 in /  1016.8 hPa Calm     92 % 0.00 in /  0 mm
00:25 74.7 °F /  23.7 °C 72.2 °F /  22.3 °C 30.03 in /  1016.8 hPa Calm     92 % 0.00 in /  0 mm
00:30 74.6 °F /  23.7 °C 72.1 °F /  22.3 °C 30.03 in /  1016.8 hPa Calm     92 % 0.00 in /  0 mm
00:35 74.6 °F /  23.7 °C 72.1 °F /  22.3 °C 30.03 in /  1016.8 hPa Calm     92 % 0.00 in /  0 mm
00:40 74.5 °F /  23.6 °C 72.0 °F /  22.2 °C 30.03 in /  1016.8 hPa Calm     92 % 0.00 in /  0 mm
00:45 74.5 °F /  23.6 °C 72.0 °F /  22.2 °C 30.03 in /  1016.8 hPa Calm     92 % 0.00 in /  0 mm
00:50 74.5 °F /  23.6 °C 72.0 °F /  22.2 °C 30.03 in /  1016.8 hPa Calm     92 % 0.00 in /  0 mm
00:55 74.4 °F /  23.6 °C 72.2 °F /  22.3 °C 30.03 in /  1016.8 hPa Calm   1.2 mph /  1.9 km/h 93 % 0.00 in /  0 mm
01:00 74.4 °F /  23.6 °C 72.2 °F /  22.3 °C 30.03 in /  1016.8 hPa Calm     93 % 0.00 in /  0 mm
01:05 74.4 °F /  23.6 °C 72.2 °F /  22.3 °C 30.03 in /  1016.8 hPa South 0.2 mph /  0.3 km/h 1.2 mph /  1.9 km/h 93 % 0.00 in /  0 mm
01:10 74.4 °F /  23.6 °C 72.2 °F /  22.3 °C 30.03 in /  1016.8 hPa Calm     93 % 0.00 in /  0 mm
01:15 74.4 °F /  23.6 °C 72.2 °F /  22.3 °C 30.03 in /  1016.8 hPa Calm     93 % 0.00 in /  0 mm
01:20 74.3 °F /  23.5 °C 72.1 °F /  22.3 °C 30.03 in /  1016.8 hPa Calm     93 % 0.00 in /  0 mm
01:25 74.3 °F /  23.5 °C 72.1 °F /  22.3 °C 30.03 in /  1016.8 hPa Calm     93 % 0.00 in /  0 mm
01:30 74.3 °F /  23.5 °C 72.1 °F /  22.3 °C 30.02 in /  1016.5 hPa Calm     93 % 0.00 in /  0 mm
01:35 74.3 °F /  23.5 °C 72.1 °F /  22.3 °C 30.02 in /  1016.5 hPa Calm     93 % 0.00 in /  0 mm
01:40 74.3 °F /  23.5 °C 72.5 °F /  22.5 °C 30.02 in /  1016.5 hPa Calm   1.2 mph /  1.9 km/h 94 % 0.00 in /  0 mm
01:45 74.3 °F /  23.5 °C 72.5 °F /  22.5 °C 30.02 in /  1016.5 hPa Calm     94 % 0.00 in /  0 mm
01:50 74.3 °F /  23.5 °C 72.5 °F /  22.5 °C 30.02 in /  1016.5 hPa Calm     94 % 0.00 in /  0 mm
01:55 74.2 °F /  23.4 °C 72.4 °F /  22.4 °C 30.02 in /  1016.5 hPa Calm     94 % 0.00 in /  0 mm
02:00 74.2 °F /  23.4 °C 72.4 °F /  22.4 °C 30.02 in /  1016.5 hPa Calm     94 % 0.00 in /  0 mm
02:05 74.2 °F /  23.4 °C 72.4 °F /  22.4 °C 30.03 in /  1016.8 hPa Calm     94 % 0.00 in /  0 mm
02:10 74.2 °F /  23.4 °C 72.4 °F /  22.4 °C 30.03 in /  1016.8 hPa Calm   1.2 mph /  1.9 km/h 94 % 0.00 in /  0 mm
02:15 74.2 °F /  23.4 °C 72.0 °F /  22.2 °C 30.03 in /  1016.8 hPa Calm     93 % 0.00 in /  0 mm
02:20 74.1 °F /  23.4 °C 71.9 °F /  22.2 °C 30.02 in /  1016.5 hPa Calm     93 % 0.00 in /  0 mm
02:25 74.1 °F /  23.4 °C 71.9 °F /  22.2 °C 30.02 in /  1016.5 hPa Calm     93 % 0.00 in /  0 mm
02:30 74.0 °F /  23.3 °C 71.8 °F /  22.1 °C 30.02 in /  1016.5 hPa Calm     93 % 0.00 in /  0 mm
02:35 73.9 °F /  23.3 °C 71.7 °F /  22.1 °C 30.02 in /  1016.5 hPa Calm     93 % 0.00 in /  0 mm
02:40 73.9 °F /  23.3 °C 71.7 °F /  22.1 °C 30.02 in /  1016.5 hPa Calm     93 % 0.00 in /  0 mm
02:45 73.8 °F /  23.2 °C 71.6 °F /  22 °C 30.03 in /  1016.8 hPa Calm     93 % 0.00 in /  0 mm
02:50 73.7 °F /  23.2 °C 71.5 °F /  21.9 °C 30.03 in /  1016.8 hPa Calm     93 % 0.00 in /  0 mm
02:53 73.7 °F /  23.2 °C 71.5 °F /  21.9 °C 30.02 in /  1016.5 hPa Calm     93 % 0.00 in /  0 mm
02:58 73.6 °F /  23.1 °C 71.4 °F /  21.9 °C 30.03 in /  1016.8 hPa Calm     93 % 0.00 in /  0 mm
03:03 73.6 °F /  23.1 °C 71.4 °F /  21.9 °C 30.03 in /  1016.8 hPa Calm     93 % 0.00 in /  0 mm
03:08 73.5 °F /  23.1 °C 71.4 °F /  21.9 °C 30.03 in /  1016.8 hPa Calm     93 % 0.00 in /  0 mm
03:13 73.5 °F /  23.1 °C 71.4 °F /  21.9 °C 30.03 in /  1016.8 hPa Calm     93 % 0.00 in /  0 mm
03:18 73.4 °F /  23 °C 71.3 °F /  21.8 °C 30.03 in /  1016.8 hPa Calm     93 % 0.00 in /  0 mm
03:23 73.3 °F /  22.9 °C 71.2 °F /  21.8 °C 30.03 in /  1016.8 hPa Calm     93 % 0.00 in /  0 mm
03:28 73.3 °F /  22.9 °C 71.2 °F /  21.8 °C 30.03 in /  1016.8 hPa Calm     93 % 0.00 in /  0 mm
03:33 73.3 °F /  22.9 °C 71.2 °F /  21.8 °C 30.03 in /  1016.8 hPa Calm   1.2 mph /  1.9 km/h 93 % 0.00 in /  0 mm
03:38 73.2 °F /  22.9 °C 71.1 °F /  21.7 °C 30.03 in /  1016.8 hPa Calm     93 % 0.00 in /  0 mm
03:43 73.1 °F /  22.8 °C 71.0 °F /  21.7 °C 30.03 in /  1016.8 hPa Calm     93 % 0.00 in /  0 mm
03:48 73.1 °F /  22.8 °C 71.0 °F /  21.7 °C 30.03 in /  1016.8 hPa Calm     93 % 0.00 in /  0 mm
03:53 73.0 °F /  22.8 °C 71.2 °F /  21.8 °C 30.03 in /  1016.8 hPa Calm     94 % 0.00 in /  0 mm
03:58 73.0 °F /  22.8 °C 71.2 °F /  21.8 °C 30.03 in /  1016.8 hPa Calm     94 % 0.00 in /  0 mm
04:03 72.9 °F /  22.7 °C 71.1 °F /  21.7 °C 30.02 in /  1016.5 hPa Calm     94 % 0.00 in /  0 mm
04:08 72.9 °F /  22.7 °C 71.1 °F /  21.7 °C 30.03 in /  1016.8 hPa Calm     94 % 0.00 in /  0 mm
04:14 72.8 °F /  22.7 °C 71.0 °F /  21.7 °C 30.03 in /  1016.8 hPa Calm     94 % 0.00 in /  0 mm
04:19 72.8 °F /  22.7 °C 71.0 °F /  21.7 °C 30.03 in /  1016.8 hPa Calm     94 % 0.00 in /  0 mm
04:24 72.8 °F /  22.7 °C 71.0 °F /  21.7 °C 30.03 in /  1016.8 hPa Calm     94 % 0.00 in /  0 mm
04:29 72.7 °F /  22.6 °C 70.9 °F /  21.6 °C 30.02 in /  1016.5 hPa Calm     94 % 0.00 in /  0 mm
04:34 72.7 °F /  22.6 °C 70.9 °F /  21.6 °C 30.02 in /  1016.5 hPa Calm     94 % 0.00 in /  0 mm
04:39 72.6 °F /  22.6 °C 70.8 °F /  21.6 °C 30.02 in /  1016.5 hPa Calm     94 % 0.00 in /  0 mm
04:44 72.5 °F /  22.5 °C 70.7 °F /  21.5 °C 30.02 in /  1016.5 hPa Calm     94 % 0.00 in /  0 mm
04:49 72.5 °F /  22.5 °C 70.7 °F /  21.5 °C 30.02 in /  1016.5 hPa Calm     94 % 0.00 in /  0 mm
04:54 72.4 °F /  22.4 °C 70.6 °F /  21.4 °C 30.02 in /  1016.5 hPa Calm     94 % 0.00 in /  0 mm
04:59 72.4 °F /  22.4 °C 70.6 °F /  21.4 °C 30.03 in /  1016.8 hPa Calm     94 % 0.00 in /  0 mm
05:04 72.4 °F /  22.4 °C 70.9 °F /  21.6 °C 30.03 in /  1016.8 hPa Calm   1.2 mph /  1.9 km/h 95 % 0.00 in /  0 mm
05:09 72.4 °F /  22.4 °C 70.9 °F /  21.6 °C 30.03 in /  1016.8 hPa Calm     95 % 0.00 in /  0 mm
05:14 72.4 °F /  22.4 °C 70.9 °F /  21.6 °C 30.03 in /  1016.8 hPa Calm     95 % 0.00 in /  0 mm
05:20 72.3 °F /  22.4 °C 70.8 °F /  21.6 °C 30.03 in /  1016.8 hPa Calm     95 % 0.00 in /  0 mm
05:25 72.3 °F /  22.4 °C 70.8 °F /  21.6 °C 30.03 in /  1016.8 hPa Calm     95 % 0.00 in /  0 mm
05:30 72.2 °F /  22.3 °C 70.7 °F /  21.5 °C 30.03 in /  1016.8 hPa Calm     95 % 0.00 in /  0 mm
05:35 72.2 °F /  22.3 °C 70.7 °F /  21.5 °C 30.03 in /  1016.8 hPa Calm     95 % 0.00 in /  0 mm
05:40 72.3 °F /  22.4 °C 70.8 °F /  21.6 °C 30.03 in /  1016.8 hPa Calm     95 % 0.00 in /  0 mm
05:45 72.3 °F /  22.4 °C 70.8 °F /  21.6 °C 30.03 in /  1016.8 hPa Calm     95 % 0.00 in /  0 mm
05:50 72.3 °F /  22.4 °C 70.8 °F /  21.6 °C 30.03 in /  1016.8 hPa Calm     95 % 0.00 in /  0 mm
05:55 72.3 °F /  22.4 °C 70.8 °F /  21.6 °C 30.03 in /  1016.8 hPa Calm     95 % 0.00 in /  0 mm
05:56 72.3 °F /  22.4 °C 70.8 °F /  21.6 °C 30.03 in /  1016.8 hPa Calm     95 % 0.00 in /  0 mm
06:01 72.3 °F /  22.4 °C 71.1 °F /  21.7 °C 30.03 in /  1016.8 hPa Calm     96 % 0.00 in /  0 mm
06:06 72.3 °F /  22.4 °C 71.1 °F /  21.7 °C 30.03 in /  1016.8 hPa Calm     96 % 0.00 in /  0 mm
06:11 72.2 °F /  22.3 °C 71.0 °F /  21.7 °C 30.03 in /  1016.8 hPa Calm     96 % 0.00 in /  0 mm
06:16 72.2 °F /  22.3 °C 70.7 °F /  21.5 °C 30.03 in /  1016.8 hPa Calm     95 % 0.00 in /  0 mm
06:21 72.2 °F /  22.3 °C 70.7 °F /  21.5 °C 30.03 in /  1016.8 hPa Calm     95 % 0.00 in /  0 mm
06:26 72.2 °F /  22.3 °C 70.7 °F /  21.5 °C 30.03 in /  1016.8 hPa Calm     95 % 0.00 in /  0 mm
06:31 72.3 °F /  22.4 °C 71.1 °F /  21.7 °C 30.03 in /  1016.8 hPa Calm     96 % 0.00 in /  0 mm
06:36 72.4 °F /  22.4 °C 71.2 °F /  21.8 °C 30.03 in /  1016.8 hPa Calm     96 % 0.00 in /  0 mm
06:42 72.6 °F /  22.6 °C 71.4 °F /  21.9 °C 30.04 in /  1017.2 hPa Calm     96 % 0.00 in /  0 mm
06:47 72.9 °F /  22.7 °C 71.7 °F /  22.1 °C 30.04 in /  1017.2 hPa Calm     96 % 0.00 in /  0 mm
06:52 73.4 °F /  23 °C 72.5 °F /  22.5 °C 30.04 in /  1017.2 hPa Calm     97 % 0.00 in /  0 mm
06:57 73.7 °F /  23.2 °C 72.8 °F /  22.7 °C 30.03 in /  1016.8 hPa Calm     97 % 0.00 in /  0 mm
07:02 73.9 °F /  23.3 °C 73.0 °F /  22.8 °C 30.04 in /  1017.2 hPa Calm     97 % 0.00 in /  0 mm
07:07 74.2 °F /  23.4 °C 73.3 °F /  22.9 °C 30.04 in /  1017.2 hPa Calm   1.2 mph /  1.9 km/h 97 % 0.00 in /  0 mm
07:12 74.4 °F /  23.6 °C 73.2 °F /  22.9 °C 30.05 in /  1017.5 hPa Calm     96 % 0.00 in /  0 mm
07:17 74.8 °F /  23.8 °C 73.6 °F /  23.1 °C 30.05 in /  1017.5 hPa Calm     96 % 0.00 in /  0 mm
07:22 75.1 °F /  23.9 °C 73.9 °F /  23.3 °C 30.05 in /  1017.5 hPa Calm     96 % 0.00 in /  0 mm
07:27 75.4 °F /  24.1 °C 74.2 °F /  23.4 °C 30.05 in /  1017.5 hPa Calm   2.0 mph /  3.2 km/h 96 % 0.00 in /  0 mm
07:30 75.6 °F /  24.2 °C 74.4 °F /  23.6 °C 30.05 in /  1017.5 hPa SW 0.7 mph /  1.1 km/h 3.0 mph /  4.8 km/h 96 % 0.00 in /  0 mm
07:35 75.8 °F /  24.3 °C 74.3 °F /  23.5 °C 30.05 in /  1017.5 hPa ENE 0.4 mph /  0.6 km/h 2.0 mph /  3.2 km/h 95 % 0.00 in /  0 mm
07:40 76.0 °F /  24.4 °C 73.8 °F /  23.2 °C 30.05 in /  1017.5 hPa WSW 1.4 mph /  2.3 km/h 2.3 mph /  3.7 km/h 93 % 0.00 in /  0 mm
07:45 76.3 °F /  24.6 °C 73.8 °F /  23.2 °C 30.06 in /  1017.8 hPa WSW 0.3 mph /  0.5 km/h 2.3 mph /  3.7 km/h 92 % 0.00 in /  0 mm
07:50 76.5 °F /  24.7 °C 73.7 °F /  23.2 °C 30.06 in /  1017.8 hPa WSW 2.5 mph /  4 km/h 4.0 mph /  6.4 km/h 91 % 0.00 in /  0 mm
07:55 76.6 °F /  24.8 °C 73.4 °F /  23 °C 30.06 in /  1017.8 hPa Calm     90 % 0.00 in /  0 mm
08:00 76.7 °F /  24.8 °C 73.2 °F /  22.9 °C 30.06 in /  1017.8 hPa WSW 0.7 mph /  1.1 km/h 2.3 mph /  3.7 km/h 89 % 0.00 in /  0 mm
08:05 76.8 °F /  24.9 °C 73.3 °F /  22.9 °C 30.06 in /  1017.8 hPa WSW 0.3 mph /  0.5 km/h 2.3 mph /  3.7 km/h 89 % 0.00 in /  0 mm
08:10 76.9 °F /  24.9 °C 73.4 °F /  23 °C 30.06 in /  1017.8 hPa Calm   1.2 mph /  1.9 km/h 89 % 0.00 in /  0 mm
08:15 77.0 °F /  25 °C 73.5 °F /  23.1 °C 30.06 in /  1017.8 hPa WSW 1.5 mph /  2.4 km/h 2.3 mph /  3.7 km/h 89 % 0.00 in /  0 mm
08:20 77.0 °F /  25 °C 73.2 °F /  22.9 °C 30.06 in /  1017.8 hPa Calm     88 % 0.00 in /  0 mm
08:25 77.2 °F /  25.1 °C 73.4 °F /  23 °C 30.06 in /  1017.8 hPa WSW 1.2 mph /  1.9 km/h 3.5 mph /  5.6 km/h 88 % 0.00 in /  0 mm
08:30 77.3 °F /  25.2 °C 73.5 °F /  23.1 °C 30.07 in /  1018.2 hPa West 0.7 mph /  1.1 km/h 3.5 mph /  5.6 km/h 88 % 0.00 in /  0 mm
08:35 77.3 °F /  25.2 °C 73.5 °F /  23.1 °C 30.07 in /  1018.2 hPa West 1.6 mph /  2.6 km/h 3.5 mph /  5.6 km/h 88 % 0.00 in /  0 mm
08:40 77.5 °F /  25.3 °C 73.3 °F /  22.9 °C 30.07 in /  1018.2 hPa West 0.2 mph /  0.3 km/h 1.2 mph /  1.9 km/h 87 % 0.00 in /  0 mm
08:46 77.6 °F /  25.3 °C 73.4 °F /  23 °C 30.07 in /  1018.2 hPa WSW 2.0 mph /  3.2 km/h 5.0 mph /  8 km/h 87 % 0.00 in /  0 mm
08:51 77.6 °F /  25.3 °C 73.1 °F /  22.8 °C 30.07 in /  1018.2 hPa Calm   2.0 mph /  3.2 km/h 86 % 0.00 in /  0 mm
08:56 77.7 °F /  25.4 °C 73.2 °F /  22.9 °C 30.07 in /  1018.2 hPa Calm   1.2 mph /  1.9 km/h 86 % 0.00 in /  0 mm
09:01 77.8 °F /  25.4 °C 73.3 °F /  22.9 °C 30.06 in /  1017.8 hPa SW 1.9 mph /  3.1 km/h 2.3 mph /  3.7 km/h 86 % 0.00 in /  0 mm
09:06 78.0 °F /  25.6 °C 73.1 °F /  22.8 °C 30.07 in /  1018.2 hPa South 2.0 mph /  3.2 km/h 4.0 mph /  6.4 km/h 85 % 0.00 in /  0 mm
09:07 78.1 °F /  25.6 °C 73.2 °F /  22.9 °C 30.07 in /  1018.2 hPa SSW 0.4 mph /  0.6 km/h 2.0 mph /  3.2 km/h 85 % 0.00 in /  0 mm
09:12 78.3 °F /  25.7 °C 73.4 °F /  23 °C 30.06 in /  1017.8 hPa Calm     85 % 0.00 in /  0 mm
09:17 78.5 °F /  25.8 °C 74.0 °F /  23.3 °C 30.06 in /  1017.8 hPa NNE 2.4 mph /  3.9 km/h 4.0 mph /  6.4 km/h 86 % 0.00 in /  0 mm
09:22 78.7 °F /  25.9 °C 73.8 °F /  23.2 °C 30.06 in /  1017.8 hPa North 1.4 mph /  2.3 km/h 3.5 mph /  5.6 km/h 85 % 0.00 in /  0 mm
09:27 78.8 °F /  26 °C 74.3 °F /  23.5 °C 30.06 in /  1017.8 hPa ENE 1.2 mph /  1.9 km/h 3.5 mph /  5.6 km/h 86 % 0.00 in /  0 mm
09:32 78.9 °F /  26.1 °C 73.7 °F /  23.2 °C 30.06 in /  1017.8 hPa ENE 0.6 mph /  1 km/h 3.5 mph /  5.6 km/h 84 % 0.00 in /  0 mm
09:37 79.0 °F /  26.1 °C 74.1 °F /  23.4 °C 30.06 in /  1017.8 hPa North 2.8 mph /  4.5 km/h 4.6 mph /  7.4 km/h 85 % 0.00 in /  0 mm
09:42 79.1 °F /  26.2 °C 74.2 °F /  23.4 °C 30.06 in /  1017.8 hPa NNE 1.1 mph /  1.8 km/h 3.5 mph /  5.6 km/h 85 % 0.00 in /  0 mm
09:48 79.1 °F /  26.2 °C 73.8 °F /  23.2 °C 30.06 in /  1017.8 hPa NNE 0.3 mph /  0.5 km/h 3.5 mph /  5.6 km/h 84 % 0.00 in /  0 mm
09:53 79.3 °F /  26.3 °C 74.0 °F /  23.3 °C 30.05 in /  1017.5 hPa NNE 0.7 mph /  1.1 km/h 2.0 mph /  3.2 km/h 84 % 0.00 in /  0 mm
09:58 79.8 °F /  26.6 °C 74.9 °F /  23.8 °C 30.05 in /  1017.5 hPa North 0.5 mph /  0.8 km/h 2.3 mph /  3.7 km/h 85 % 0.00 in /  0 mm
10:03 80.3 °F /  26.8 °C 74.7 °F /  23.7 °C 30.06 in /  1017.8 hPa NE 1.2 mph /  1.9 km/h 3.5 mph /  5.6 km/h 83 % 0.00 in /  0 mm
10:08 80.9 °F /  27.2 °C 74.9 °F /  23.8 °C 30.06 in /  1017.8 hPa NE 2.2 mph /  3.5 km/h 4.6 mph /  7.4 km/h 82 % 0.00 in /  0 mm
10:13 81.6 °F /  27.6 °C 75.2 °F /  24 °C 30.06 in /  1017.8 hPa NNE 1.4 mph /  2.3 km/h 2.3 mph /  3.7 km/h 81 % 0.00 in /  0 mm
10:18 82.4 °F /  28 °C 75.6 °F /  24.2 °C 30.06 in /  1017.8 hPa NNE 2.6 mph /  4.2 km/h 3.5 mph /  5.6 km/h 80 % 0.00 in /  0 mm
10:23 83.2 °F /  28.4 °C 75.6 °F /  24.2 °C 30.06 in /  1017.8 hPa North 3.7 mph /  6 km/h 4.6 mph /  7.4 km/h 78 % 0.00 in /  0 mm
10:28 83.3 °F /  28.5 °C 74.9 °F /  23.8 °C 30.06 in /  1017.8 hPa NNE 0.7 mph /  1.1 km/h 2.3 mph /  3.7 km/h 76 % 0.00 in /  0 mm
10:33 83.6 °F /  28.7 °C 75.2 °F /  24 °C 30.05 in /  1017.5 hPa NNE 2.5 mph /  4 km/h 4.6 mph /  7.4 km/h 76 % 0.00 in /  0 mm
10:38 84.0 °F /  28.9 °C 76.0 °F /  24.4 °C 30.06 in /  1017.8 hPa NE 2.4 mph /  3.9 km/h 3.5 mph /  5.6 km/h 77 % 0.00 in /  0 mm
10:43 84.4 °F /  29.1 °C 75.2 °F /  24 °C 30.06 in /  1017.8 hPa NNE 1.1 mph /  1.8 km/h 4.6 mph /  7.4 km/h 74 % 0.00 in /  0 mm
10:48 85.0 °F /  29.4 °C 76.2 °F /  24.6 °C 30.05 in /  1017.5 hPa NE 1.0 mph /  1.6 km/h 3.5 mph /  5.6 km/h 75 % 0.00 in /  0 mm
10:53 85.8 °F /  29.9 °C 77.0 °F /  25 °C 30.05 in /  1017.5 hPa North 3.3 mph /  5.3 km/h 4.6 mph /  7.4 km/h 75 % 0.00 in /  0 mm
10:59 86.1 °F /  30.1 °C 76.8 °F /  24.9 °C 30.05 in /  1017.5 hPa NE 1.0 mph /  1.6 km/h 1.2 mph /  1.9 km/h 74 % 0.00 in /  0 mm
11:04 86.5 °F /  30.3 °C 76.4 °F /  24.7 °C 30.06 in /  1017.8 hPa NNW 2.3 mph /  3.7 km/h 5.0 mph /  8 km/h 72 % 0.00 in /  0 mm
11:09 86.7 °F /  30.4 °C 77.0 °F /  25 °C 30.05 in /  1017.5 hPa NNE 2.1 mph /  3.4 km/h 3.5 mph /  5.6 km/h 73 % 0.00 in /  0 mm
11:14 87.0 °F /  30.6 °C 76.5 °F /  24.7 °C 30.05 in /  1017.5 hPa NNE 3.2 mph /  5.1 km/h 5.0 mph /  8 km/h 71 % 0.00 in /  0 mm
11:19 87.3 °F /  30.7 °C 76.7 °F /  24.8 °C 30.05 in /  1017.5 hPa NNE 2.9 mph /  4.7 km/h 5.0 mph /  8 km/h 71 % 0.00 in /  0 mm
11:24 87.6 °F /  30.9 °C 76.6 °F /  24.8 °C 30.05 in /  1017.5 hPa NNE 4.0 mph /  6.4 km/h 5.8 mph /  9.3 km/h 70 % 0.00 in /  0 mm
11:29 87.8 °F /  31 °C 77.2 °F /  25.1 °C 30.06 in /  1017.8 hPa North 2.3 mph /  3.7 km/h 4.6 mph /  7.4 km/h 71 % 0.00 in /  0 mm
11:31 88.0 °F /  31.1 °C 77.8 °F /  25.4 °C 30.05 in /  1017.5 hPa WNW 2.1 mph /  3.4 km/h 4.0 mph /  6.4 km/h 72 % 0.00 in /  0 mm
11:36 88.3 °F /  31.3 °C 77.7 °F /  25.4 °C 30.05 in /  1017.5 hPa NNE 1.3 mph /  2.1 km/h 3.5 mph /  5.6 km/h 71 % 0.00 in /  0 mm
11:41 88.4 °F /  31.3 °C 76.9 °F /  24.9 °C 30.05 in /  1017.5 hPa North 3.3 mph /  5.3 km/h 5.0 mph /  8 km/h 69 % 0.00 in /  0 mm
11:46 88.5 °F /  31.4 °C 76.1 °F /  24.5 °C 30.05 in /  1017.5 hPa North 1.4 mph /  2.3 km/h 4.6 mph /  7.4 km/h 67 % 0.00 in /  0 mm
11:51 88.7 °F /  31.5 °C 76.8 °F /  24.9 °C 30.05 in /  1017.5 hPa North 0.9 mph /  1.4 km/h 3.0 mph /  4.8 km/h 68 % 0.00 in /  0 mm
11:52 88.7 °F /  31.5 °C 76.3 °F /  24.6 °C 30.05 in /  1017.5 hPa NNE 2.9 mph /  4.7 km/h 4.0 mph /  6.4 km/h 67 % 0.00 in /  0 mm
11:57 88.7 °F /  31.5 °C 75.9 °F /  24.4 °C 30.05 in /  1017.5 hPa NNE 3.4 mph /  5.5 km/h 5.8 mph /  9.3 km/h 66 % 0.00 in /  0 mm
12:02 88.6 °F /  31.4 °C 76.7 °F /  24.8 °C 30.05 in /  1017.5 hPa NNE 3.0 mph /  4.8 km/h 3.5 mph /  5.6 km/h 68 % 0.00 in /  0 mm
12:05 88.7 °F /  31.5 °C 75.9 °F /  24.4 °C 30.05 in /  1017.5 hPa North 1.8 mph /  2.9 km/h 3.5 mph /  5.6 km/h 66 % 0.00 in /  0 mm
12:10 88.8 °F /  31.6 °C 76.4 °F /  24.7 °C 30.05 in /  1017.5 hPa NE 0.9 mph /  1.4 km/h 2.3 mph /  3.7 km/h 67 % 0.00 in /  0 mm
12:15 88.7 °F /  31.5 °C 76.8 °F /  24.9 °C 30.05 in /  1017.5 hPa NW 1.5 mph /  2.4 km/h 3.5 mph /  5.6 km/h 68 % 0.00 in /  0 mm
12:20 88.7 °F /  31.5 °C 75.4 °F /  24.1 °C 30.05 in /  1017.5 hPa North 2.9 mph /  4.7 km/h 4.6 mph /  7.4 km/h 65 % 0.00 in /  0 mm
12:25 88.2 °F /  31.2 °C 75.4 °F /  24.1 °C 30.05 in /  1017.5 hPa NNE 1.2 mph /  1.9 km/h 3.5 mph /  5.6 km/h 66 % 0.00 in /  0 mm
12:30 87.7 °F /  30.9 °C 76.3 °F /  24.6 °C 30.05 in /  1017.5 hPa Calm     69 % 0.00 in /  0 mm
12:35 87.4 °F /  30.8 °C 76.4 °F /  24.7 °C 30.04 in /  1017.2 hPa NNE 0.3 mph /  0.5 km/h 2.3 mph /  3.7 km/h 70 % 0.00 in /  0 mm
12:40 87.5 °F /  30.8 °C 76.5 °F /  24.7 °C 30.04 in /  1017.2 hPa Calm   1.2 mph /  1.9 km/h 70 % 0.00 in /  0 mm
12:45 87.7 °F /  30.9 °C 76.3 °F /  24.6 °C 30.04 in /  1017.2 hPa NE 0.9 mph /  1.4 km/h 3.5 mph /  5.6 km/h 69 % 0.00 in /  0 mm
12:50 87.9 °F /  31.1 °C 75.6 °F /  24.2 °C 30.04 in /  1017.2 hPa NE 2.6 mph /  4.2 km/h 4.6 mph /  7.4 km/h 67 % 0.00 in /  0 mm
12:55 88.1 °F /  31.2 °C 75.8 °F /  24.3 °C 30.03 in /  1016.8 hPa NNE 0.7 mph /  1.1 km/h 1.2 mph /  1.9 km/h 67 % 0.00 in /  0 mm
13:00 88.2 °F /  31.2 °C 75.4 °F /  24.1 °C 30.03 in /  1016.8 hPa North 2.7 mph /  4.3 km/h 4.0 mph /  6.4 km/h 66 % 0.00 in /  0 mm
13:05 87.4 °F /  30.8 °C 74.6 °F /  23.7 °C 30.03 in /  1016.8 hPa NE 1.6 mph /  2.6 km/h 3.5 mph /  5.6 km/h 66 % 0.00 in /  0 mm
13:10 87.2 °F /  30.7 °C 75.8 °F /  24.3 °C 30.03 in /  1016.8 hPa ENE 1.1 mph /  1.8 km/h 3.5 mph /  5.6 km/h 69 % 0.00 in /  0 mm
13:16 86.8 °F /  30.4 °C 75.4 °F /  24.1 °C 30.03 in /  1016.8 hPa NE 5.0 mph /  8 km/h 6.0 mph /  9.7 km/h 69 % 0.00 in /  0 mm
13:21 86.7 °F /  30.4 °C 75.7 °F /  24.3 °C 30.03 in /  1016.8 hPa NE 3.0 mph /  4.8 km/h 5.0 mph /  8 km/h 70 % 0.00 in /  0 mm
13:26 86.5 °F /  30.3 °C 75.1 °F /  23.9 °C 30.03 in /  1016.8 hPa NE 1.0 mph /  1.6 km/h 4.0 mph /  6.4 km/h 69 % 0.00 in /  0 mm
13:31 86.2 °F /  30.1 °C 75.7 °F /  24.3 °C 30.03 in /  1016.8 hPa Calm   2.0 mph /  3.2 km/h 71 % 0.00 in /  0 mm
13:36 86.5 °F /  30.3 °C 77.3 °F /  25.2 °C 30.03 in /  1016.8 hPa Calm   2.0 mph /  3.2 km/h 74 % 0.00 in /  0 mm
13:41 86.8 °F /  30.4 °C 77.1 °F /  25.1 °C 30.02 in /  1016.5 hPa East 1.0 mph /  1.6 km/h 3.0 mph /  4.8 km/h 73 % 0.00 in /  0 mm
13:46 87.3 °F /  30.7 °C 78.0 °F /  25.6 °C 30.02 in /  1016.5 hPa Calm   3.0 mph /  4.8 km/h 74 % 0.00 in /  0 mm
13:51 87.6 °F /  30.9 °C 77.0 °F /  25 °C 30.02 in /  1016.5 hPa Calm   4.0 mph /  6.4 km/h 71 % 0.00 in /  0 mm
13:56 87.4 °F /  30.8 °C 77.2 °F /  25.1 °C 30.02 in /  1016.5 hPa ENE 1.0 mph /  1.6 km/h 6.0 mph /  9.7 km/h 72 % 0.00 in /  0 mm
14:01 87.0 °F /  30.6 °C 76.9 °F /  24.9 °C 30.02 in /  1016.5 hPa NE 0.6 mph /  1 km/h 3.0 mph /  4.8 km/h 72 % 0.00 in /  0 mm
14:06 86.1 °F /  30.1 °C 76.0 °F /  24.4 °C 30.02 in /  1016.5 hPa NE 1.3 mph /  2.1 km/h 3.5 mph /  5.6 km/h 72 % 0.00 in /  0 mm
14:11 85.6 °F /  29.8 °C 76.8 °F /  24.9 °C 30.02 in /  1016.5 hPa North 3.7 mph /  6 km/h 4.6 mph /  7.4 km/h 75 % 0.00 in /  0 mm
14:14 85.6 °F /  29.8 °C 77.2 °F /  25.1 °C 30.02 in /  1016.5 hPa NE 1.8 mph /  2.9 km/h 3.5 mph /  5.6 km/h 76 % 0.00 in /  0 mm
14:19 85.7 °F /  29.8 °C 76.9 °F /  24.9 °C 30.02 in /  1016.5 hPa ENE 2.1 mph /  3.4 km/h 4.0 mph /  6.4 km/h 75 % 0.00 in /  0 mm
14:24 85.8 °F /  29.9 °C 77.4 °F /  25.2 °C 30.02 in /  1016.5 hPa NE 0.5 mph /  0.8 km/h 2.3 mph /  3.7 km/h 76 % 0.00 in /  0 mm
14:29 86.1 °F /  30.1 °C 77.6 °F /  25.3 °C 30.02 in /  1016.5 hPa Calm   2.3 mph /  3.7 km/h 76 % 0.00 in /  0 mm
14:34 86.6 °F /  30.3 °C 77.3 °F /  25.2 °C 30.02 in /  1016.5 hPa North 1.0 mph /  1.6 km/h 3.5 mph /  5.6 km/h 74 % 0.00 in /  0 mm
14:39 87.0 °F /  30.6 °C 77.3 °F /  25.2 °C 30.02 in /  1016.5 hPa SSE 2.4 mph /  3.9 km/h 3.0 mph /  4.8 km/h 73 % 0.00 in /  0 mm
14:44 87.1 °F /  30.6 °C 74.4 °F /  23.6 °C 30.01 in /  1016.1 hPa SE 0.1 mph /  0.2 km/h 3.5 mph /  5.6 km/h 66 % 0.00 in /  0 mm
14:49 87.5 °F /  30.8 °C 75.6 °F /  24.2 °C 30.01 in /  1016.1 hPa SE 0.3 mph /  0.5 km/h 2.0 mph /  3.2 km/h 68 % 0.00 in /  0 mm
14:54 87.7 °F /  30.9 °C 74.5 °F /  23.6 °C 30.01 in /  1016.1 hPa SSE 2.6 mph /  4.2 km/h 4.6 mph /  7.4 km/h 65 % 0.00 in /  0 mm
14:59 87.7 °F /  30.9 °C 75.4 °F /  24.1 °C 30.01 in /  1016.1 hPa SSE 0.3 mph /  0.5 km/h 1.2 mph /  1.9 km/h 67 % 0.00 in /  0 mm
15:04 88.0 °F /  31.1 °C 74.8 °F /  23.8 °C 30.01 in /  1016.1 hPa SE 1.4 mph /  2.3 km/h 3.5 mph /  5.6 km/h 65 % 0.00 in /  0 mm
15:09 88.2 °F /  31.2 °C 74.9 °F /  23.8 °C 30.00 in /  1015.8 hPa SSE 1.2 mph /  1.9 km/h 4.6 mph /  7.4 km/h 65 % 0.00 in /  0 mm
15:14 88.5 °F /  31.4 °C 74.8 °F /  23.8 °C 30.00 in /  1015.8 hPa WNW 3.4 mph /  5.5 km/h 5.8 mph /  9.3 km/h 64 % 0.00 in /  0 mm
15:19 88.9 °F /  31.6 °C 74.7 °F /  23.7 °C 30.01 in /  1016.1 hPa SE 0.7 mph /  1.1 km/h 2.3 mph /  3.7 km/h 63 % 0.00 in /  0 mm
15:24 89.3 °F /  31.8 °C 75.0 °F /  23.9 °C 30.00 in /  1015.8 hPa Calm   2.3 mph /  3.7 km/h 63 % 0.00 in /  0 mm
15:29 89.5 °F /  31.9 °C 73.8 °F /  23.2 °C 30.00 in /  1015.8 hPa South 0.5 mph /  0.8 km/h 3.5 mph /  5.6 km/h 60 % 0.00 in /  0 mm
15:34 89.6 °F /  32 °C 73.9 °F /  23.3 °C 30.00 in /  1015.8 hPa SW 0.1 mph /  0.2 km/h   60 % 0.00 in /  0 mm
15:39 89.5 °F /  31.9 °C 74.3 °F /  23.5 °C 30.00 in /  1015.8 hPa SE 0.3 mph /  0.5 km/h 5.8 mph /  9.3 km/h 61 % 0.00 in /  0 mm
15:44 89.5 °F /  31.9 °C 74.8 °F /  23.8 °C 30.00 in /  1015.8 hPa SSE 0.1 mph /  0.2 km/h 3.5 mph /  5.6 km/h 62 % 0.00 in /  0 mm
15:49 89.5 °F /  31.9 °C 74.3 °F /  23.5 °C 30.00 in /  1015.8 hPa SSE 3.6 mph /  5.8 km/h 5.8 mph /  9.3 km/h 61 % 0.00 in /  0 mm
15:54 89.3 °F /  31.8 °C 74.6 °F /  23.7 °C 30.00 in /  1015.8 hPa SSE 0.2 mph /  0.3 km/h 1.2 mph /  1.9 km/h 62 % 0.00 in /  0 mm
15:59 89.3 °F /  31.8 °C 74.1 °F /  23.4 °C 30.00 in /  1015.8 hPa South 1.0 mph /  1.6 km/h 3.5 mph /  5.6 km/h 61 % 0.00 in /  0 mm
16:04 89.1 °F /  31.7 °C 74.4 °F /  23.6 °C 30.00 in /  1015.8 hPa SSE 0.5 mph /  0.8 km/h 3.5 mph /  5.6 km/h 62 % 0.00 in /  0 mm
16:10 89.0 °F /  31.7 °C 74.8 °F /  23.8 °C 30.00 in /  1015.8 hPa SW 0.7 mph /  1.1 km/h 4.6 mph /  7.4 km/h 63 % 0.00 in /  0 mm
16:15 88.9 °F /  31.6 °C 74.2 °F /  23.4 °C 30.00 in /  1015.8 hPa SSE 0.8 mph /  1.3 km/h 2.0 mph /  3.2 km/h 62 % 0.00 in /  0 mm
16:20 88.6 °F /  31.4 °C 72.9 °F /  22.7 °C 30.00 in /  1015.8 hPa SSE 2.4 mph /  3.9 km/h 4.6 mph /  7.4 km/h 60 % 0.00 in /  0 mm
16:21 88.5 °F /  31.4 °C 72.9 °F /  22.7 °C 30.00 in /  1015.8 hPa SSE 3.0 mph /  4.8 km/h 8.0 mph /  12.9 km/h 60 % 0.00 in /  0 mm
16:26 88.0 °F /  31.1 °C 72.9 °F /  22.7 °C 30.00 in /  1015.8 hPa South 1.0 mph /  1.6 km/h 6.0 mph /  9.7 km/h 61 % 0.00 in /  0 mm
16:31 87.5 °F /  30.8 °C 71.9 °F /  22.2 °C 30.00 in /  1015.8 hPa South 0.8 mph /  1.3 km/h 2.3 mph /  3.7 km/h 60 % 0.00 in /  0 mm
16:32 87.4 °F /  30.8 °C 72.3 °F /  22.4 °C 30.00 in /  1015.8 hPa South 1.1 mph /  1.8 km/h 3.0 mph /  4.8 km/h 61 % 0.00 in /  0 mm
16:37 87.1 °F /  30.6 °C 72.0 °F /  22.2 °C 30.00 in /  1015.8 hPa SE 1.8 mph /  2.9 km/h 5.8 mph /  9.3 km/h 61 % 0.00 in /  0 mm
16:42 86.7 °F /  30.4 °C 72.1 °F /  22.3 °C 30.00 in /  1015.8 hPa ESE 3.9 mph /  6.3 km/h 8.0 mph /  12.9 km/h 62 % 0.00 in /  0 mm
16:47 86.5 °F /  30.3 °C 71.9 °F /  22.2 °C 30.00 in /  1015.8 hPa SSE 0.3 mph /  0.5 km/h 1.2 mph /  1.9 km/h 62 % 0.00 in /  0 mm
16:52 86.6 °F /  30.3 °C 72.5 °F /  22.5 °C 30.00 in /  1015.8 hPa SSW 1.1 mph /  1.8 km/h 3.5 mph /  5.6 km/h 63 % 0.00 in /  0 mm
16:57 86.6 °F /  30.3 °C 72.0 °F /  22.2 °C 30.00 in /  1015.8 hPa SSW 2.8 mph /  4.5 km/h 3.5 mph /  5.6 km/h 62 % 0.00 in /  0 mm
17:02 86.6 °F /  30.3 °C 72.0 °F /  22.2 °C 30.00 in /  1015.8 hPa SSW 0.1 mph /  0.2 km/h 2.3 mph /  3.7 km/h 62 % 0.00 in /  0 mm
17:07 86.5 °F /  30.3 °C 71.5 °F /  21.9 °C 29.99 in /  1015.5 hPa WSW 1.5 mph /  2.4 km/h 4.0 mph /  6.4 km/h 61 % 0.00 in /  0 mm
17:12 86.3 °F /  30.2 °C 70.8 °F /  21.6 °C 29.99 in /  1015.5 hPa SSW 0.2 mph /  0.3 km/h 2.3 mph /  3.7 km/h 60 % 0.00 in /  0 mm
17:17 86.0 °F /  30 °C 71.0 °F /  21.7 °C 29.99 in /  1015.5 hPa South 1.0 mph /  1.6 km/h 2.3 mph /  3.7 km/h 61 % 0.00 in /  0 mm
17:22 85.8 °F /  29.9 °C 71.3 °F /  21.8 °C 29.99 in /  1015.5 hPa SSE 0.3 mph /  0.5 km/h 3.5 mph /  5.6 km/h 62 % 0.00 in /  0 mm
17:27 85.7 °F /  29.8 °C 71.7 °F /  22.1 °C 29.99 in /  1015.5 hPa Calm   1.2 mph /  1.9 km/h 63 % 0.00 in /  0 mm
17:32 85.6 °F /  29.8 °C 72.0 °F /  22.2 °C 29.99 in /  1015.5 hPa SSE 0.9 mph /  1.4 km/h 3.5 mph /  5.6 km/h 64 % 0.00 in /  0 mm
17:37 85.5 °F /  29.7 °C 71.9 °F /  22.2 °C 29.99 in /  1015.5 hPa WSW 0.7 mph /  1.1 km/h 2.3 mph /  3.7 km/h 64 % 0.00 in /  0 mm
17:42 85.3 °F /  29.6 °C 70.8 °F /  21.6 °C 29.99 in /  1015.5 hPa SW 1.7 mph /  2.7 km/h 4.6 mph /  7.4 km/h 62 % 0.00 in /  0 mm
17:47 85.2 °F /  29.6 °C 71.2 °F /  21.8 °C 29.98 in /  1015.1 hPa West 0.7 mph /  1.1 km/h 3.5 mph /  5.6 km/h 63 % 0.00 in /  0 mm
17:53 85.1 °F /  29.5 °C 72.0 °F /  22.2 °C 29.98 in /  1015.1 hPa WSW 0.4 mph /  0.6 km/h 2.3 mph /  3.7 km/h 65 % 0.00 in /  0 mm
17:58 84.9 °F /  29.4 °C 71.8 °F /  22.1 °C 29.99 in /  1015.5 hPa SW 0.4 mph /  0.6 km/h 2.3 mph /  3.7 km/h 65 % 0.00 in /  0 mm
18:03 84.6 °F /  29.2 °C 71.5 °F /  21.9 °C 29.99 in /  1015.5 hPa South 0.9 mph /  1.4 km/h 2.3 mph /  3.7 km/h 65 % 0.00 in /  0 mm
18:08 84.3 °F /  29.1 °C 71.2 °F /  21.8 °C 30.00 in /  1015.8 hPa SSE 1.1 mph /  1.8 km/h 4.6 mph /  7.4 km/h 65 % 0.00 in /  0 mm
18:13 84.1 °F /  28.9 °C 71.1 °F /  21.7 °C 30.00 in /  1015.8 hPa South 0.4 mph /  0.6 km/h 2.3 mph /  3.7 km/h 65 % 0.00 in /  0 mm
18:18 83.9 °F /  28.8 °C 70.9 °F /  21.6 °C 30.00 in /  1015.8 hPa SE 1.9 mph /  3.1 km/h 3.5 mph /  5.6 km/h 65 % 0.00 in /  0 mm
18:23 83.7 °F /  28.7 °C 71.1 °F /  21.7 °C 30.00 in /  1015.8 hPa SW 1.4 mph /  2.3 km/h 4.0 mph /  6.4 km/h 66 % 0.00 in /  0 mm
18:28 83.6 °F /  28.7 °C 71.5 °F /  21.9 °C 30.00 in /  1015.8 hPa SSW 1.2 mph /  1.9 km/h 3.5 mph /  5.6 km/h 67 % 0.00 in /  0 mm
18:33 83.5 °F /  28.6 °C 71.8 °F /  22.1 °C 30.00 in /  1015.8 hPa South 2.2 mph /  3.5 km/h 5.8 mph /  9.3 km/h 68 % 0.00 in /  0 mm
18:38 83.4 °F /  28.6 °C 72.2 °F /  22.3 °C 30.01 in /  1016.1 hPa SE 1.8 mph /  2.9 km/h 4.0 mph /  6.4 km/h 69 % 0.00 in /  0 mm
18:43 83.1 °F /  28.4 °C 71.9 °F /  22.2 °C 30.00 in /  1015.8 hPa SSE 2.2 mph /  3.5 km/h 6.9 mph /  11.1 km/h 69 % 0.00 in /  0 mm
18:48 82.9 °F /  28.3 °C 72.1 °F /  22.3 °C 30.01 in /  1016.1 hPa SSW 0.6 mph /  1 km/h 3.0 mph /  4.8 km/h 70 % 0.00 in /  0 mm
18:53 82.7 °F /  28.2 °C 71.9 °F /  22.2 °C 30.01 in /  1016.1 hPa South 1.3 mph /  2.1 km/h 4.6 mph /  7.4 km/h 70 % 0.00 in /  0 mm
18:58 82.5 °F /  28.1 °C 72.1 °F /  22.3 °C 30.00 in /  1015.8 hPa SSW 0.3 mph /  0.5 km/h 2.3 mph /  3.7 km/h 71 % 0.00 in /  0 mm
19:03 82.4 °F /  28 °C 72.5 °F /  22.5 °C 30.00 in /  1015.8 hPa SE 0.3 mph /  0.5 km/h 1.2 mph /  1.9 km/h 72 % 0.00 in /  0 mm
19:08 82.2 °F /  27.9 °C 71.9 °F /  22.2 °C 30.00 in /  1015.8 hPa ESE 1.0 mph /  1.6 km/h 3.5 mph /  5.6 km/h 71 % 0.00 in /  0 mm
19:13 82.0 °F /  27.8 °C 72.1 °F /  22.3 °C 29.99 in /  1015.5 hPa SE 1.4 mph /  2.3 km/h 3.5 mph /  5.6 km/h 72 % 0.00 in /  0 mm
19:18 81.7 °F /  27.6 °C 72.2 °F /  22.3 °C 29.99 in /  1015.5 hPa SSE 3.0 mph /  4.8 km/h 3.5 mph /  5.6 km/h 73 % 0.00 in /  0 mm
19:23 81.5 °F /  27.5 °C 72.4 °F /  22.4 °C 29.99 in /  1015.5 hPa SSE 0.6 mph /  1 km/h 2.3 mph /  3.7 km/h 74 % 0.00 in /  0 mm
19:28 81.3 °F /  27.4 °C 72.2 °F /  22.3 °C 29.99 in /  1015.5 hPa South 1.8 mph /  2.9 km/h 4.6 mph /  7.4 km/h 74 % 0.00 in /  0 mm
19:34 81.1 °F /  27.3 °C 72.0 °F /  22.2 °C 29.99 in /  1015.5 hPa SSE 1.4 mph /  2.3 km/h 3.5 mph /  5.6 km/h 74 % 0.00 in /  0 mm
19:39 80.9 °F /  27.2 °C 72.2 °F /  22.3 °C 29.99 in /  1015.5 hPa SSW 1.8 mph /  2.9 km/h 3.5 mph /  5.6 km/h 75 % 0.00 in /  0 mm
19:44 80.7 °F /  27.1 °C 72.0 °F /  22.2 °C 29.99 in /  1015.5 hPa SSE 0.4 mph /  0.6 km/h 3.5 mph /  5.6 km/h 75 % 0.00 in /  0 mm
19:49 80.5 °F /  26.9 °C 72.2 °F /  22.3 °C 29.99 in /  1015.5 hPa South 0.8 mph /  1.3 km/h 3.5 mph /  5.6 km/h 76 % 0.00 in /  0 mm
19:54 80.2 °F /  26.8 °C 72.3 °F /  22.4 °C 29.99 in /  1015.5 hPa SE 1.4 mph /  2.3 km/h 5.0 mph /  8 km/h 77 % 0.00 in /  0 mm
19:59 79.9 °F /  26.6 °C 72.4 °F /  22.4 °C 29.99 in /  1015.5 hPa SSW 1.4 mph /  2.3 km/h 2.3 mph /  3.7 km/h 78 % 0.00 in /  0 mm
20:04 79.7 °F /  26.5 °C 72.6 °F /  22.6 °C 30.00 in /  1015.8 hPa South 0.4 mph /  0.6 km/h 1.2 mph /  1.9 km/h 79 % 0.00 in /  0 mm
20:09 79.5 °F /  26.4 °C 72.8 °F /  22.7 °C 30.00 in /  1015.8 hPa SSW 0.4 mph /  0.6 km/h 3.5 mph /  5.6 km/h 80 % 0.00 in /  0 mm
20:14 79.3 °F /  26.3 °C 73.0 °F /  22.8 °C 30.00 in /  1015.8 hPa SSW 0.2 mph /  0.3 km/h 3.5 mph /  5.6 km/h 81 % 0.00 in /  0 mm
20:19 79.1 °F /  26.2 °C 72.8 °F /  22.7 °C 30.00 in /  1015.8 hPa South 0.7 mph /  1.1 km/h 3.5 mph /  5.6 km/h 81 % 0.00 in /  0 mm
20:24 78.9 °F /  26.1 °C 72.9 °F /  22.7 °C 30.00 in /  1015.8 hPa SE 0.1 mph /  0.2 km/h 2.3 mph /  3.7 km/h 82 % 0.00 in /  0 mm
20:29 78.8 °F /  26 °C 72.8 °F /  22.7 °C 30.00 in /  1015.8 hPa South 0.7 mph /  1.1 km/h 3.5 mph /  5.6 km/h 82 % 0.00 in /  0 mm
20:34 78.6 °F /  25.9 °C 72.6 °F /  22.6 °C 30.00 in /  1015.8 hPa South 0.5 mph /  0.8 km/h 3.5 mph /  5.6 km/h 82 % 0.00 in /  0 mm
20:39 78.5 °F /  25.8 °C 72.5 °F /  22.5 °C 30.00 in /  1015.8 hPa WSW 1.2 mph /  1.9 km/h 4.0 mph /  6.4 km/h 82 % 0.00 in /  0 mm
20:44 78.4 °F /  25.8 °C 72.4 °F /  22.4 °C 30.01 in /  1016.1 hPa SW 1.1 mph /  1.8 km/h 3.5 mph /  5.6 km/h 82 % 0.00 in /  0 mm
20:49 78.3 °F /  25.7 °C 72.3 °F /  22.4 °C 30.01 in /  1016.1 hPa SSW 2.1 mph /  3.4 km/h 3.5 mph /  5.6 km/h 82 % 0.00 in /  0 mm
20:54 78.1 °F /  25.6 °C 72.5 °F /  22.5 °C 30.01 in /  1016.1 hPa SW 0.8 mph /  1.3 km/h 3.5 mph /  5.6 km/h 83 % 0.00 in /  0 mm
20:59 78.0 °F /  25.6 °C 72.4 °F /  22.4 °C 30.00 in /  1015.8 hPa SSW 0.8 mph /  1.3 km/h 3.5 mph /  5.6 km/h 83 % 0.00 in /  0 mm
21:04 78.0 °F /  25.6 °C 72.4 °F /  22.4 °C 30.01 in /  1016.1 hPa SSW 0.6 mph /  1 km/h 4.6 mph /  7.4 km/h 83 % 0.00 in /  0 mm
21:09 77.9 °F /  25.5 °C 72.7 °F /  22.6 °C 30.00 in /  1015.8 hPa SW 0.5 mph /  0.8 km/h 1.2 mph /  1.9 km/h 84 % 0.00 in /  0 mm
21:14 77.8 °F /  25.4 °C 72.6 °F /  22.6 °C 30.00 in /  1015.8 hPa SW 0.5 mph /  0.8 km/h 2.3 mph /  3.7 km/h 84 % 0.00 in /  0 mm
21:19 77.7 °F /  25.4 °C 72.8 °F /  22.7 °C 30.01 in /  1016.1 hPa SE 0.4 mph /  0.6 km/h 2.3 mph /  3.7 km/h 85 % 0.00 in /  0 mm
21:24 77.6 °F /  25.3 °C 72.7 °F /  22.6 °C 30.01 in /  1016.1 hPa SSW 0.8 mph /  1.3 km/h 3.5 mph /  5.6 km/h 85 % 0.00 in /  0 mm
21:29 77.5 °F /  25.3 °C 72.6 °F /  22.6 °C 30.01 in /  1016.1 hPa SSW 1.3 mph /  2.1 km/h 5.0 mph /  8 km/h 85 % 0.00 in /  0 mm
21:34 77.5 °F /  25.3 °C 73.0 °F /  22.8 °C 30.02 in /  1016.5 hPa SSW 0.5 mph /  0.8 km/h 2.3 mph /  3.7 km/h 86 % 0.00 in /  0 mm
21:39 77.4 °F /  25.2 °C 72.9 °F /  22.7 °C 30.01 in /  1016.1 hPa SSW 1.1 mph /  1.8 km/h 4.6 mph /  7.4 km/h 86 % 0.00 in /  0 mm
21:44 77.3 °F /  25.2 °C 72.8 °F /  22.7 °C 30.01 in /  1016.1 hPa South 1.0 mph /  1.6 km/h 3.5 mph /  5.6 km/h 86 % 0.00 in /  0 mm
21:49 77.3 °F /  25.2 °C 72.8 °F /  22.7 °C 30.01 in /  1016.1 hPa SSW 1.2 mph /  1.9 km/h 3.5 mph /  5.6 km/h 86 % 0.00 in /  0 mm
21:54 77.2 °F /  25.1 °C 72.7 °F /  22.6 °C 30.01 in /  1016.1 hPa SSW 2.9 mph /  4.7 km/h 4.0 mph /  6.4 km/h 86 % 0.00 in /  0 mm
21:59 77.2 °F /  25.1 °C 72.7 °F /  22.6 °C 30.01 in /  1016.1 hPa SSW 1.2 mph /  1.9 km/h 3.5 mph /  5.6 km/h 86 % 0.00 in /  0 mm
22:04 77.1 °F /  25.1 °C 72.9 °F /  22.7 °C 30.01 in /  1016.1 hPa SSW 0.9 mph /  1.4 km/h 3.5 mph /  5.6 km/h 87 % 0.00 in /  0 mm
22:09 77.1 °F /  25.1 °C 72.9 °F /  22.7 °C 30.01 in /  1016.1 hPa SSW 0.7 mph /  1.1 km/h 3.5 mph /  5.6 km/h 87 % 0.00 in /  0 mm
22:15 77.1 °F /  25.1 °C 72.9 °F /  22.7 °C 30.01 in /  1016.1 hPa SSW 1.7 mph /  2.7 km/h 3.5 mph /  5.6 km/h 87 % 0.00 in /  0 mm
22:20 77.0 °F /  25 °C 72.8 °F /  22.7 °C 30.02 in /  1016.5 hPa SW 0.4 mph /  0.6 km/h 2.3 mph /  3.7 km/h 87 % 0.00 in /  0 mm
22:25 77.0 °F /  25 °C 72.8 °F /  22.7 °C 30.02 in /  1016.5 hPa SSW 1.4 mph /  2.3 km/h 3.5 mph /  5.6 km/h 87 % 0.00 in /  0 mm
22:30 76.9 °F /  24.9 °C 72.7 °F /  22.6 °C 30.02 in /  1016.5 hPa SSW 0.9 mph /  1.4 km/h 3.5 mph /  5.6 km/h 87 % 0.00 in /  0 mm
22:35 76.9 °F /  24.9 °C 72.7 °F /  22.6 °C 30.02 in /  1016.5 hPa SW 0.1 mph /  0.2 km/h 1.2 mph /  1.9 km/h 87 % 0.00 in /  0 mm
22:40 76.8 °F /  24.9 °C 73.0 °F /  22.8 °C 30.02 in /  1016.5 hPa WSW 0.5 mph /  0.8 km/h 5.8 mph /  9.3 km/h 88 % 0.00 in /  0 mm
22:45 76.8 °F /  24.9 °C 73.0 °F /  22.8 °C 30.02 in /  1016.5 hPa SW 1.1 mph /  1.8 km/h 3.0 mph /  4.8 km/h 88 % 0.00 in /  0 mm
22:50 76.8 °F /  24.9 °C 73.0 °F /  22.8 °C 30.02 in /  1016.5 hPa WSW 0.9 mph /  1.4 km/h 3.0 mph /  4.8 km/h 88 % 0.00 in /  0 mm
22:55 76.7 °F /  24.8 °C 72.9 °F /  22.7 °C 30.01 in /  1016.1 hPa SSW 1.0 mph /  1.6 km/h 4.6 mph /  7.4 km/h 88 % 0.00 in /  0 mm
23:00 76.7 °F /  24.8 °C 72.9 °F /  22.7 °C 30.02 in /  1016.5 hPa WSW 0.4 mph /  0.6 km/h 3.5 mph /  5.6 km/h 88 % 0.00 in /  0 mm
23:05 76.7 °F /  24.8 °C 72.9 °F /  22.7 °C 30.01 in /  1016.1 hPa SSW 0.4 mph /  0.6 km/h 2.0 mph /  3.2 km/h 88 % 0.00 in /  0 mm
23:10 76.6 °F /  24.8 °C 72.8 °F /  22.7 °C 30.01 in /  1016.1 hPa WSW 1.6 mph /  2.6 km/h 3.5 mph /  5.6 km/h 88 % 0.00 in /  0 mm
23:15 76.6 °F /  24.8 °C 72.8 °F /  22.7 °C 30.01 in /  1016.1 hPa SW 1.4 mph /  2.3 km/h 3.5 mph /  5.6 km/h 88 % 0.00 in /  0 mm
23:20 76.5 °F /  24.7 °C 73.0 °F /  22.8 °C 30.01 in /  1016.1 hPa SW 0.5 mph /  0.8 km/h 2.3 mph /  3.7 km/h 89 % 0.00 in /  0 mm
23:25 76.5 °F /  24.7 °C 73.0 °F /  22.8 °C 30.01 in /  1016.1 hPa SSW 2.8 mph /  4.5 km/h 6.9 mph /  11.1 km/h 89 % 0.00 in /  0 mm
23:30 76.4 °F /  24.7 °C 72.9 °F /  22.7 °C 30.01 in /  1016.1 hPa SE 0.6 mph /  1 km/h 4.6 mph /  7.4 km/h 89 % 0.00 in /  0 mm
23:35 76.4 °F /  24.7 °C 72.9 °F /  22.7 °C 30.01 in /  1016.1 hPa SSW 1.3 mph /  2.1 km/h 4.0 mph /  6.4 km/h 89 % 0.00 in /  0 mm
23:40 76.4 °F /  24.7 °C 72.9 °F /  22.7 °C 30.01 in /  1016.1 hPa South 1.0 mph /  1.6 km/h 3.5 mph /  5.6 km/h 89 % 0.00 in /  0 mm
23:46 76.3 °F /  24.6 °C 72.8 °F /  22.7 °C 30.01 in /  1016.1 hPa SW 1.0 mph /  1.6 km/h 5.0 mph /  8 km/h 89 % 0.00 in /  0 mm
23:51 76.3 °F /  24.6 °C 73.1 °F /  22.8 °C 30.01 in /  1016.1 hPa Calm   3.0 mph /  4.8 km/h 90 % 0.00 in /  0 mm
23:56 76.3 °F /  24.6 °C 73.1 °F /  22.8 °C 30.01 in /  1016.1 hPa SSW 0.3 mph /  0.5 km/h 3.5 mph /  5.6 km/h 90 % 0.00 in /  0 mm
Crab Meadow Weather
Compliments of Weather Underground - 3 mb

Script developed by  Jim McMurry - jmcmurry@mwt.net Adapted for the template by  Wim van der Kuil - Leuven-Template.eu

Weather Terms: Rain/Showers - Rain is a nearly steady and uniform fall of precipitation over an area. Showers are intermittent and/or scattered convective rainfall of varying intensity.